Temp
11 11 12 12 12 13 13 12 13 11 11 9 7 6 6 7 7 7 6 7 7 7 6 5 4 4 4 3 3 3 3 3 3 3 3 3 3 3
11 11 11 12 11 13 12 13 13 14 14 11 8 6 6 6 6 6 6 6 6 6 6 5 4 4 3 3 3 2 2 2 2 2 3 2 3 3
11 11 11 11 11 12 11 12 12 13 14 6 7 5 5 5 5 5 5 5 5 5 4 4 4 3 3 2 2 2 1 1 1 1 1 1 2 2
10 10 10 11 11 11 10 12 13 13 11 7 4 4 4 4 4 4 4 4 4 4 3 3 2 3 2 2 1 1 1 1 1 0 0 0 1 1
9 9 10 10 9 11 10 10 11 12 12 9 5 4 4 4 3 3 3 3 3 3 3 2 2 2 2 2 1 1 1 1 0 -1 -0 -0 0 1
9 9 9 9 9 10 10 10 11 11 10 8 6 4 4 3 3 3 2 2 2 2 2 2 1 2 2 1 1 1 1 0 -0 -1 -1 -1 -1 -1
8 8 8 8 9 10 9 9 10 9 8 6 5 4 3 2 2 2 3 2 3 2 2 1 1 1 0 1 0 0 -0 -0 -1 -2 -2 -2 -2 -2
7 7 8 8 8 9 9 9 11 10 7 7 6 5 3 2 3 3 4 3 3 1 1 1 0 0 0 -1 -1 -0 -1 -2 -2 -2 -2 -2 -2 -2
7 7 7 7 7 8 8 9 9 9 10 9 7 6 4 4 3 2 3 2 3 1 1 1 -0 0 -0 -1 -1 -1 -2 -2 -2 -3 -3 -3 -3 -3
7 7 8 7 6 8 8 7 7 7 8 9 9 9 8 5 4 3 2 2 0 -1 -0 1 -1 -0 -1 -2 -2 -2 -3 -3 -2 -3 -3 -4 -4 -4
6 6 6 6 7 8 8 5 5 5 6 6 7 8 7 6 4 3 1 0 0 -0 -1 -1 -2 -2 -1 -2 -2 -3 -3 -3 -3 -4 -4 -4 -4 -4
5 5 5 6 9 9 8 5 3 3 4 4 4 4 4 3 4 4 3 1 -1 -2 -2 -2 -3 -2 -2 -3 -3 -3 -3 -4 -4 -4 -4 -4 -4 -4
4 3 4 5 6 7 8 6 6 3 2 2 2 2 2 2 2 2 1 1 -0 -2 -2 -2 -4 -4 -4 -4 -4 -4 -4 -4 -4 -5 -4 -4 -5 -5
4 4 3 4 3 3 4 3 3 2 2 1 0 -1 -1 -1 -1 -1 -0 -0 -1 -0 -1 -3 -4 -5 -4 -4 -4 -4 -4 -5 -5 -5 -5 -4 -4 -5
2 2 2 2 1 2 2 2 1 2 0 -0 -1 -1 -1 -2 -2 -2 -2 -3 -2 -3 -4 -4 -4 -5 -6 -5 -5 -5 -5 -5 -5 -5 -6 -5 -5 -5
1 1 1 0 -0 0 -0 -1 -0 0 -0 -1 -1 -1 -2 -3 -3 -3 -4 -5 -5 -5 -5 -5 -5 -6 -6 -6 -6 -6 -6 -6 -5 -6 -6 -6 -5 -6
1 0 -0 -0 -0 -0 -1 -1 0 -0 -0 -1 -2 -3 -4 -4 -4 -4 -5 -5 -5 -5 -6 -6 -6 -6 -7 -7 -7 -6 -6 -6 -6 -6 -6 -6 -6 -6
0 0 -0 -0 -0 -1 -2 -2 -2 -2 -2 -2 -3 -3 -4 -4 -5 -5 -5 -5 -5 -6 -6 -6 -7 -7 -7 -6 -6 -7 -6 -6 -6 -6 -7 -7 -6 -6
-0 -0 -1 -1 -1 -2 -2 -2 -2 -2 -2 -3 -3 -3 -4 -4 -5 -5 -6 -6 -6 -6 -6 -7 -8 -8 -7 -6 -5 -7 -7 -7 -7 -7 -6 -6 -6 -6
-0 -1 -1 -1 -2 -2 -2 -2 -3 -3 -3 -3 -3 -4 -4 -4 -5 -5 -5 -5 -5 -6 -7 -8 -8 -8 -8 -7 -7 -7 -8 -8 -8 -7 -7 -7 -7 -6
-1 -1 -1 -1 -2 -2 -2 -2 -3 -3 -3 -3 -4 -4 -4 -4 -5 -5 -5 -6 -6 -7 -7 -7 -7 -9 -9 -10 -10 -8 -7 -7 -8 -8 -8 -8 -7 -6
-2 -2 -2 -2 -2 -2 -2 -2 -3 -3 -3 -4 -4 -4 -5 -5 -5 -6 -6 -6 -6 -6 -7 -7 -9 -9 -10 -9 -8 -8 -7 -7 -6 -7 -7 -7 -8 -7
-2 -2 -2 -2 -2 -2 -2 -2 -3 -3 -3 -3 -4 -4 -5 -5 -5 -6 -6 -7 -7 -7 -8 -8 -8 -9 -9 -9 -9 -9 -8 -8 -7 -7 -7 -6 -7 -7
Height
777 781 782 789 795 799 802 806 809 817 821 823 826 830 833 837 840 844 847 848 851 853 854 855 855 855 857 856 858 858 857 856 856 855 854 852 849 849
769 773 778 782 789 792 796 799 803 805 808 814 820 822 827 832 836 840 843 846 848 850 851 852 852 853 853 853 855 855 855 854 854 852 852 849 847 846
760 765 768 774 778 785 791 792 796 799 803 814 816 818 823 827 831 837 839 843 845 847 848 849 849 851 851 850 852 853 852 851 851 849 848 845 844 843
750 755 759 766 769 778 782 784 789 792 797 805 811 814 818 823 828 832 835 839 842 843 844 846 846 847 848 847 848 848 848 847 845 844 843 842 840 839
740 745 747 755 760 767 773 777 781 786 790 794 804 810 814 819 825 829 832 835 839 840 841 843 843 844 844 844 845 843 843 843 841 840 840 839 837 837
729 734 740 743 749 757 765 769 772 779 785 791 797 803 808 814 821 824 828 831 833 837 838 840 841 840 840 841 841 841 840 839 838 837 837 835 834 834
721 725 731 736 743 748 753 759 765 773 778 786 790 798 804 808 811 816 823 827 830 833 835 836 837 836 837 837 837 836 836 836 835 834 834 833 831 828
714 718 725 732 738 743 747 752 756 763 772 778 784 789 793 801 806 809 818 822 826 826 829 830 832 832 834 834 833 832 833 832 829 829 828 828 826 823
709 712 718 725 730 736 742 750 753 758 764 767 774 779 786 792 796 804 811 815 816 819 823 827 830 830 831 830 829 830 830 829 827 825 824 823 821 819
706 708 711 720 728 729 732 743 751 755 761 766 771 775 781 785 790 796 805 812 816 819 821 824 826 826 827 827 826 827 826 824 823 822 821 819 817 812
703 706 712 719 722 723 728 740 746 753 760 764 768 772 777 782 786 794 802 807 814 816 817 822 822 823 824 824 824 823 822 821 819 818 816 813 810 806
700 705 710 716 713 718 725 734 743 749 755 761 766 772 776 781 788 794 797 803 808 814 814 818 819 821 821 819 819 820 819 818 815 813 812 808 806 803
698 704 708 711 714 718 723 730 736 744 753 758 763 769 778 782 786 790 796 800 803 806 808 812 816 817 818 817 816 816 816 815 811 808 806 804 802 800
693 699 705 709 716 719 725 730 735 741 749 755 762 771 777 781 786 791 795 799 801 802 806 810 812 814 814 814 814 813 813 810 807 803 802 800 796 793
694 698 703 707 714 719 722 728 733 739 747 754 760 767 774 779 785 791 795 796 798 803 807 808 810 811 812 813 813 812 808 803 802 801 800 796 791 788
694 700 707 712 717 721 729 732 738 743 748 754 760 763 771 780 785 788 791 796 800 804 806 807 807 808 808 810 811 808 806 804 800 799 796 792 787 786
695 699 706 714 720 725 730 732 737 743 749 755 761 766 771 778 782 786 791 796 799 801 803 803 804 804 803 804 804 803 800 799 797 795 791 786 782 779
698 701 706 712 717 720 725 732 739 743 749 757 761 765 769 775 781 786 790 793 797 799 801 801 803 804 801 798 796 795 797 796 795 789 787 781 777 773
700 704 707 711 715 722 727 733 739 744 750 756 760 764 770 776 780 785 789 791 795 795 797 799 800 802 802 799 795 793 793 793 788 784 781 777 771 765
702 705 709 712 717 723 728 734 739 746 751 757 760 765 769 775 778 781 786 788 791 793 795 797 798 798 797 796 795 793 790 787 783 780 774 771 766 759
705 707 711 715 720 724 730 735 740 745 751 756 760 764 768 772 775 779 780 786 790 789 791 794 794 795 793 794 793 786 784 782 780 776 770 767 759 752
707 711 715 716 721 726 731 736 741 746 750 755 760 764 767 769 772 777 779 783 787 788 788 791 790 790 792 791 786 783 780 776 773 769 767 765 758 747
710 713 715 718 723 728 732 737 742 746 750 754 758 761 765 768 772 774 777 779 783 786 787 787 787 789 788 786 784 781 777 772 767 762 758 756 751 743
Wind_Speed
38 39 38 35 33 28 22 24 14 7 11 18 12 23 23 25 24 23 18 19 16 13 11 11 11 9 7 5 5 4 5 6 7 9 10 11 12 13
40 37 40 37 35 33 26 25 19 11 5 15 21 17 24 23 24 21 20 18 16 13 12 12 10 9 8 7 6 7 6 7 9 10 12 13 13 14
38 37 38 41 36 35 29 28 19 13 8 5 13 12 22 22 21 22 21 19 16 15 12 11 10 10 9 7 7 7 7 9 10 11 12 13 14 15
39 41 39 40 38 36 33 32 30 24 12 12 12 13 16 21 20 22 21 18 15 15 14 12 11 11 10 8 10 9 10 12 11 10 11 13 14 15
42 38 40 39 36 35 31 32 32 30 22 16 11 13 10 20 20 18 17 16 14 14 15 14 13 12 12 12 12 12 12 12 11 11 11 11 12 13
39 41 41 41 40 38 34 34 36 32 23 18 11 17 14 20 20 21 17 16 14 14 14 12 12 13 13 13 14 13 12 12 11 8 8 10 12 16
36 39 38 38 39 42 38 33 34 30 24 20 14 14 16 23 27 23 18 16 14 13 13 12 12 12 12 14 13 12 12 11 7 6 10 13 15 16
32 34 35 38 40 38 37 35 44 35 27 20 15 18 20 21 24 24 20 19 10 15 15 12 14 11 10 9 12 12 13 9 7 7 11 14 16 17
29 32 29 33 33 36 36 33 32 34 36 37 27 23 21 29 30 24 22 19 8 9 16 10 10 10 9 8 13 13 9 7 8 10 13 15 17 18
30 27 28 31 31 33 29 27 30 30 30 29 28 28 26 27 32 27 23 15 9 9 11 6 8 7 7 8 13 8 8 8 10 11 14 16 16 15
23 28 31 34 34 30 29 27 23 23 25 23 23 22 22 20 30 26 22 19 6 7 13 6 5 5 7 8 9 11 11 10 10 14 15 15 14 17
21 22 30 34 30 28 30 32 26 26 26 22 18 19 20 25 25 20 20 18 10 5 10 9 6 4 3 4 7 8 9 11 13 14 15 14 15 18
24 22 24 25 28 33 33 35 36 34 28 32 31 28 26 24 20 16 16 18 14 4 10 12 9 6 4 4 5 9 9 9 12 12 14 13 18 19
22 28 28 28 35 36 31 30 37 36 34 32 29 25 22 19 17 16 14 13 11 7 12 13 6 8 5 3 6 4 10 12 11 13 13 21 22 21
21 25 19 27 27 25 27 36 36 35 33 29 26 24 21 20 18 17 14 10 9 9 11 11 9 8 7 7 9 11 13 10 19 12 15 22 24 25
18 19 28 27 25 26 32 27 28 30 28 23 22 22 23 24 22 17 14 11 9 8 9 9 9 9 7 10 12 18 13 9 16 18 16 22 27 23
26 31 28 26 25 26 23 25 25 23 22 23 26 25 25 23 17 16 13 12 7 10 7 8 10 11 12 14 14 15 15 15 15 17 17 20 25 26
24 24 22 23 23 23 25 24 27 27 26 24 21 23 23 21 18 15 13 10 9 7 7 6 5 5 7 11 15 16 12 13 14 18 19 21 24 27
15 18 19 20 20 22 22 23 20 22 22 23 23 21 21 19 17 14 11 10 8 7 5 6 5 5 6 6 6 11 12 13 15 21 20 21 26 32
15 16 16 19 22 22 24 23 23 23 22 20 21 21 19 18 16 13 12 9 7 6 6 6 8 9 9 5 6 10 11 18 17 21 24 25 28 32
17 17 19 22 23 24 23 23 24 23 22 21 18 18 19 18 14 12 9 9 8 7 8 9 8 8 8 10 10 15 15 14 18 22 25 24 26 27
19 20 21 22 22 22 22 21 21 20 20 19 18 19 17 15 13 12 10 9 10 9 8 7 7 7 8 11 15 16 19 20 23 24 22 23 25 15
18 18 19 20 20 20 21 20 20 19 19 19 19 16 16 14 12 10 9 8 8 9 9 7 7 8 10 11 14 18 20 21 21 24 25 24 28 30
Wind_Direction
217 212 206 207 206 199 193 187 171 188 207 200 185 206 205 206 207 203 202 207 211 214 219 210 215 232 242 241 258 273 288 295 299 305 309 315 319 314
217 214 211 206 208 209 203 194 196 177 187 193 203 195 198 202 206 200 204 208 213 218 222 222 225 230 232 235 253 258 280 301 301 303 302 310 311 310
215 215 209 206 204 206 209 197 193 184 165 158 185 191 192 194 197 199 206 205 213 217 218 214 222 231 242 241 241 255 278 292 296 303 305 307 308 308
216 213 205 205 201 204 204 200 201 197 174 158 176 178 191 194 193 195 200 205 207 214 213 217 220 234 240 232 242 257 268 280 291 302 305 303 304 305
212 209 202 202 199 202 203 202 198 202 196 176 153 177 174 186 187 192 196 203 207 214 217 221 227 235 240 245 252 258 272 280 292 301 304 307 307 301
208 205 203 199 201 200 199 202 199 200 192 166 157 169 170 184 187 184 189 198 202 211 212 214 223 238 247 250 255 268 274 282 293 295 295 303 307 306
201 199 203 204 206 201 198 197 196 191 179 168 157 163 170 171 190 187 193 194 203 206 210 218 225 238 248 252 255 269 274 286 283 286 300 301 306 304
193 195 200 207 207 206 204 202 209 193 185 180 177 180 185 190 184 183 184 179 192 213 206 219 227 228 237 244 250 266 277 261 232 286 298 297 302 302
195 194 194 209 208 202 204 206 207 206 212 204 191 190 178 194 180 178 186 187 176 188 193 209 215 232 236 245 261 274 258 226 255 288 295 298 300 301
209 210 214 213 201 199 199 198 207 208 210 217 223 222 219 202 192 186 180 166 156 175 174 204 210 224 232 245 267 232 205 230 280 293 297 299 301 306
212 211 211 206 201 199 193 183 185 197 209 212 214 216 211 200 189 178 166 159 160 183 193 195 204 239 241 248 242 212 224 292 283 301 297 298 300 309
217 210 212 210 199 202 195 184 166 177 179 174 171 163 173 174 177 188 186 167 143 166 195 182 193 215 263 239 231 223 252 282 289 300 301 301 307 312
203 198 204 211 206 199 198 192 186 171 155 153 149 148 154 160 163 172 181 193 177 144 182 179 192 199 228 270 252 246 265 274 293 300 307 298 308 307
213 211 204 195 190 183 181 169 162 156 152 145 141 142 147 154 161 168 172 184 186 198 188 200 192 194 198 272 269 253 281 290 298 303 302 311 312 311
207 206 193 175 168 161 166 157 155 155 152 146 145 151 162 166 166 165 170 170 165 169 185 205 219 219 216 234 275 289 311 308 307 295 305 309 310 310
173 162 158 154 152 149 147 150 153 156 152 149 155 160 168 167 169 174 165 165 161 181 204 213 218 233 238 253 265 277 284 274 291 295 300 305 308 302
149 145 147 152 152 156 160 164 170 176 175 170 166 163 162 166 169 175 177 174 182 179 184 210 233 245 256 262 266 263 273 273 273 283 296 297 295 295
150 153 155 158 159 153 149 152 162 163 168 172 165 160 158 163 168 176 184 183 182 181 189 200 229 280 292 282 259 257 264 272 285 296 297 293 291 295
161 160 157 156 152 152 149 152 151 166 175 174 166 162 165 171 168 178 182 178 184 186 197 207 218 233 265 275 285 257 257 277 296 296 295 292 291 293
165 158 153 151 149 149 157 157 161 172 169 167 168 174 174 173 174 178 183 185 195 196 207 221 227 228 238 266 297 273 261 276 286 290 296 297 292 295
152 150 151 151 155 160 164 167 169 167 172 177 176 180 178 173 178 181 182 195 200 205 221 235 245 244 256 274 271 285 299 290 280 280 291 297 296 300
152 153 159 165 171 173 171 171 172 171 176 176 181 181 181 178 178 183 188 197 216 230 237 236 242 252 250 256 280 291 298 303 306 305 292 280 279 288
168 172 173 174 176 177 178 177 178 177 185 188 187 184 183 180 184 188 194 208 219 229 230 241 249 250 260 268 280 289 295 298 300 302 299 299 292 288